Lapse_Rate
4.9 4.2 3.8 3.8 3.7 3.5 2.7 2.0 1.2 0.6 0.3 -0.2 -0.4 -0.3 -0.1 0.3 1.8 3.0 6.8 8.2 8.2 7.9 8.1 8.3 8.2 7.5 7.5 7.3 6.5 7.1 6.9 7.0 6.6 6.5 6.5 6.5 6.5 6.5 6.5 6.5 6.5 6.5 6.5 6.5 6.5 6.5 6.5 7.2 6.8 6.5 6.8 7.4 7.2 7.2
4.5 3.7 3.7 3.6 3.6 2.8 2.3 1.6 0.9 0.5 0.1 -0.3 -0.3 -0.5 -0.2 1.9 3.4 5.5 7.6 7.5 6.9 8.3 8.4 9.0 8.7 7.8 7.8 8.3 7.6 7.6 7.1 7.0 7.1 6.5 6.5 6.5 6.5 6.5 6.5 6.5 6.5 6.5 6.5 6.5 6.5 6.5 7.0 7.4 7.1 7.8 7.8 7.2 7.1 7.4
4.1 3.8 3.6 3.5 3.0 2.2 1.9 1.3 0.8 0.5 -0.2 -0.6 -0.6 -0.4 1.0 1.6 4.7 6.2 5.0 6.1 6.7 8.6 8.6 8.2 8.2 9.1 8.2 7.4 6.9 7.3 7.7 8.0 7.6 7.8 6.9 6.6 6.5 6.5 6.5 6.5 6.5 6.5 7.0 6.5 6.5 6.6 6.9 7.4 7.8 7.9 7.9 7.6 8.0 8.2
4.0 3.9 3.7 3.3 2.4 1.8 1.5 1.3 0.9 0.2 -0.7 -0.6 -0.1 1.1 2.2 4.4 5.5 5.7 6.0 8.3 8.1 8.6 7.1 7.7 9.5 8.8 9.7 9.3 8.7 8.7 8.3 8.4 8.3 8.0 7.0 6.5 6.5 7.1 6.5 6.6 6.5 6.6 6.8 6.5 6.5 6.8 7.1 7.5 7.7 7.9 8.1 8.1 8.2 8.4
4.0 3.9 3.9 2.8 2.0 1.7 1.5 1.3 1.1 0.0 -0.5 0.2 1.9 2.8 4.0 6.0 7.7 8.8 8.6 8.5 8.6 8.0 7.0 7.6 8.7 9.2 9.4 9.3 9.0 8.9 8.5 8.1 8.0 7.1 6.8 6.5 7.1 6.8 7.0 6.8 6.5 6.8 6.6 6.5 6.5 7.1 7.1 7.3 8.0 7.9 7.9 7.6 8.3 8.2
4.3 4.0 3.2 2.2 2.0 1.7 1.5 1.3 1.3 0.6 0.8 1.7 2.0 4.5 6.2 5.2 4.3 8.3 6.0 8.6 7.6 8.5 8.0 6.5 8.8 8.5 9.0 9.0 8.7 8.5 8.5 8.2 8.0 7.4 7.2 7.5 7.9 6.9 6.5 6.5 6.7 7.0 7.3 7.3 6.5 7.7 7.6 6.8 6.5 6.3 7.9 8.3 8.4 8.4
4.4 3.6 2.7 2.3 1.9 1.6 1.5 1.0 0.8 0.6 0.7 1.2 2.2 4.0 4.7 3.5 3.3 6.1 4.6 7.7 7.1 8.4 7.8 6.9 7.0 8.4 8.9 8.7 8.5 8.4 8.5 8.2 8.1 7.6 7.2 7.2 7.4 7.4 6.5 6.5 6.7 7.0 6.7 7.4 7.0 7.6 7.4 7.7 7.7 8.4 8.4 8.6 7.1 8.7
4.0 3.2 2.6 2.2 1.7 1.7 1.2 0.8 0.3 0.8 1.6 3.6 5.4 4.2 3.4 4.0 3.9 6.9 5.1 4.5 2.4 8.6 8.3 6.5 6.6 7.4 8.6 7.6 7.3 8.4 7.7 7.9 7.8 7.5 7.5 7.0 7.4 7.2 6.5 6.7 7.1 7.0 7.9 7.9 7.9 8.1 8.0 8.2 8.4 8.4 8.6 8.6 8.3 8.3
3.7 2.9 2.3 2.0 1.7 1.5 1.0 0.8 1.0 2.4 4.5 4.9 3.1 2.6 5.4 8.0 8.2 7.5 2.6 4.1 7.8 8.5 6.9 7.0 6.5 6.5 7.7 7.7 7.9 7.8 7.9 6.6 7.9 6.9 7.0 7.3 6.5 6.5 6.7 6.8 6.7 6.5 6.9 7.1 8.1 8.3 8.3 8.1 8.2 8.4 8.4 8.3 8.1 8.2
3.3 2.5 2.0 1.6 1.7 1.3 1.3 1.9 3.0 2.8 3.0 1.4 2.3 5.0 1.9 5.3 0.5 2.8 6.8 6.5 8.0 8.2 8.0 6.9 7.6 6.5 7.7 7.4 7.1 7.1 7.4 6.5 6.5 6.6 7.6 6.6 6.5 7.5 6.9 6.8 7.0 7.4 8.0 8.3 7.7 7.5 7.9 7.9 8.0 8.2 8.3 8.5 8.5 8.5
3.0 2.4 1.9 1.6 1.6 1.9 2.3 2.5 2.6 1.4 0.2 5.2 5.3 7.1 5.9 1.7 7.0 7.2 2.4 5.1 6.7 6.7 7.5 7.5 7.7 6.9 8.1 6.7 6.6 7.4 6.6 6.6 6.5 6.6 6.5 6.5 6.5 7.1 7.8 8.0 8.3 8.4 8.4 8.5 8.5 8.5 8.5 8.4 8.3 8.2 8.3 8.5 8.5 8.1
2.9 2.3 1.8 1.7 2.1 2.3 2.0 3.1 1.5 2.8 6.9 5.6 5.3 5.8 6.6 7.9 4.2 6.0 6.5 6.8 6.5 6.5 7.3 7.2 7.5 7.7 7.7 8.0 7.0 7.1 6.5 6.6 6.5 7.0 6.5 6.5 6.5 7.8 8.0 8.1 8.3 8.4 8.6 8.6 8.7 8.6 8.7 8.7 8.7 8.6 8.6 8.4 7.3 5.7
2.9 2.0 2.0 1.8 2.5 2.8 3.7 3.5 0.7 4.2 4.8 6.6 5.2 3.7 6.5 4.6 6.5 6.5 6.5 6.5 6.5 7.1 7.6 7.6 7.1 7.6 7.8 7.9 7.0 6.7 6.5 6.5 7.2 6.5 6.5 6.5 7.3 8.0 7.9 7.7 8.3 8.6 8.6 8.6 8.6 8.7 8.8 8.8 8.9 8.8 8.6 8.8 8.4 5.8
3.8 3.1 2.7 3.2 3.1 3.9 3.3 3.5 4.3 4.2 7.9 6.5 3.7 6.5 6.5 6.5 6.5 6.5 6.5 6.5 7.4 7.7 7.8 7.8 7.2 7.1 7.5 6.8 6.8 6.5 6.6 6.7 6.5 6.5 6.5 6.7 7.5 7.9 8.2 8.4 8.4 8.3 8.5 8.5 8.5 8.7 8.6 8.7 8.7 8.8 8.7 8.6 7.4 6.7
3.9 3.2 2.8 2.5 3.2 3.3 3.3 4.8 5.1 6.4 8.5 7.3 7.0 6.5 6.5 7.2 7.4 7.5 7.7 7.8 8.1 8.4 8.0 7.5 7.4 7.4 6.8 6.5 6.6 6.5 6.5 6.5 6.5 6.5 6.5 7.6 7.9 8.1 8.2 8.3 8.4 8.4 8.5 8.5 8.7 8.3 8.5 8.7 8.7 8.7 9.0 9.0 8.4 7.2
5.1 5.2 3.3 3.0 3.5 3.6 5.2 5.0 4.6 5.6 8.5 7.7 7.5 6.7 7.3 7.0 6.9 7.3 7.7 7.6 8.4 8.3 8.1 7.7 6.7 6.5 6.5 6.5 6.5 6.5 6.5 6.5 6.5 6.9 7.8 8.1 8.1 8.2 8.2 8.5 8.6 8.7 8.7 8.7 8.8 8.8 8.8 8.7 8.6 8.6 8.8 9.0 9.0 8.7
6.6 5.0 2.3 2.7 3.7 4.6 4.6 3.9 3.7 5.8 7.6 7.4 6.9 7.8 7.6 7.4 7.3 7.7 8.0 8.0 8.5 7.7 6.6 6.9 6.5 6.5 6.8 6.5 6.5 6.5 6.5 6.5 7.4 7.8 8.4 8.3 8.2 8.3 8.5 8.6 8.7 8.7 8.7 8.8 8.8 8.9 8.9 9.0 9.1 8.8 8.6 8.9 9.1 9.1
5.9 3.1 2.6 3.7 5.9 4.1 3.2 5.5 5.6 5.2 6.1 7.5 6.6 7.3 7.9 7.9 7.8 7.9 8.1 8.3 7.9 7.6 7.4 6.6 7.3 6.5 6.5 6.5 6.5 6.8 7.4 7.9 8.2 8.3 8.4 8.5 8.6 8.6 8.8 8.6 8.8 8.8 8.8 8.9 8.9 8.9 9.0 8.8 8.4 8.2 8.9 9.0 7.9 8.4
4.7 4.2 3.2 3.4 4.7 2.9 1.8 4.4 8.1 6.8 7.3 7.6 7.8 8.0 8.1 8.0 8.3 8.4 8.3 8.2 7.9 8.3 7.8 7.3 6.5 6.5 6.5 7.0 7.2 7.5 7.9 8.1 8.0 8.3 8.6 8.6 8.7 8.7 8.8 8.9 8.9 8.9 8.9 8.9 8.9 8.8 9.0 9.0 9.0 9.1 9.1 9.1 8.5 8.4
3.1 3.9 4.7 4.5 4.3 3.0 4.6 6.9 8.4 7.6 7.0 7.5 8.0 7.8 7.9 7.9 8.2 8.2 8.1 8.1 8.0 7.8 7.1 6.6 6.7 7.2 7.4 7.9 8.2 8.3 8.4 8.5 8.5 8.2 8.2 8.5 8.8 8.8 8.8 8.8 8.8 8.9 9.0 9.0 8.9 3.0 9.0 9.0 9.2 9.2 9.1 8.7 9.0 8.9
5.2 3.5 3.3 3.7 3.3 6.1 8.1 7.9 7.7 7.8 7.7 7.3 7.9 7.8 7.6 8.0 7.7 7.6 7.6 8.3 7.6 7.3 6.9 7.6 7.7 8.1 8.3 8.6 8.8 8.7 8.5 8.8 8.6 8.5 8.2 8.3 8.8 8.8 8.8 9.0 9.0 9.0 8.8 8.8 8.7 8.5 5.8 8.8 9.1 9.3 9.0 8.5 9.1 9.2
3.6 2.6 0.0 1.2 3.2 6.6 7.1 7.0 7.8 8.1 7.7 7.4 7.6 7.8 7.2 6.8 7.1 7.4 8.1 7.4 7.3 7.6 7.9 8.0 8.2 8.4 8.4 8.4 8.6 8.9 8.8 8.0 7.7 6.7 5.0 5.6 8.5 8.6 8.7 8.9 8.9 8.7 8.8 8.8 8.9 8.8 8.9 9.1 8.5 9.2 8.6 7.3 6.6 7.1
3.2 1.9 1.1 3.0 3.7 4.7 6.3 7.3 7.3 7.5 6.6 6.8 7.3 6.8 6.8 7.0 7.5 8.3 7.1 7.6 7.8 8.4 8.6 8.6 8.7 8.7 8.7 8.8 8.9 8.8 8.9 8.8 8.7 8.7 8.5 8.8 8.9 9.0 8.9 9.0 9.0 8.7 8.6 8.9 9.2 9.1 8.7 5.8 6.6 8.3 7.8 6.7 5.2 3.3
2.8 1.3 3.5 5.4 6.6 7.0 7.3 6.6 7.7 7.2 7.1 6.8 6.6 6.5 6.7 7.1 7.8 7.1 6.5 7.2 8.0 8.5 8.5 8.5 8.8 8.7 8.7 8.6 8.5 8.7 8.9 9.0 8.9 8.9 9.0 8.8 8.7 8.8 9.0 9.1 9.2 9.2 9.2 9.2 9.2 9.0 8.6 7.4 6.0 7.7 5.5 1.4 1.6 1.5
2.9 4.5 5.1 6.7 6.9 6.9 6.8 6.7 6.5 6.7 6.5 6.2 6.5 6.5 6.7 7.6 6.5 6.5 6.5 7.0 7.8 8.2 8.5 8.6 8.6 8.6 8.3 8.3 8.6 8.7 9.1 8.9 8.7 8.5 9.0 9.1 9.0 8.9 8.8 9.0 9.0 9.3 9.5 8.5 7.5 5.0 4.9 5.1 4.6 5.1 5.0 2.1 3.9 4.2
6.5 5.9 6.6 6.6 6.6 6.6 6.6 6.5 6.5 6.5 6.5 6.5 6.5 7.1 7.3 6.7 6.5 6.5 6.7 7.4 7.8 8.3 8.0 8.3 8.4 8.4 8.4 8.6 8.5 8.7 8.9 9.3 9.1 8.7 8.8 9.1 9.0 8.8 8.6 8.3 8.0 8.0 9.0 8.9 6.8 3.5 5.3 4.0 2.3 5.0 3.3 4.0 2.1 1.2
6.5 6.6 7.4 8.2 7.7 7.4 6.7 6.7 6.8 6.5 6.5 6.5 6.6 6.6 6.5 6.5 6.5 6.7 7.4 7.7 8.2 8.5 8.9 8.8 8.8 8.6 8.5 8.5 8.9 9.2 9.3 9.4 9.2 9.2 9.2 8.8 9.1 9.5 9.1 8.1 7.7 8.3 9.2 7.7 6.0 2.3 3.5 2.9 2.7 2.5 1.8 2.0 1.4 0.9
7.3 7.4 6.5 6.8 6.5 7.3 6.1 6.0 6.5 6.5 6.6 7.3 7.0 6.5 6.5 6.5 6.5 7.1 7.7 8.0 8.2 8.3 8.4 8.3 8.8 9.0 8.7 8.4 8.2 7.6 7.2 7.1 7.5 6.8 7.1 7.3 7.5 7.7 7.8 7.4 6.9 3.6 7.7 6.3 3.1 1.7 2.1 0.7 0.2 0.7 0.9 1.0 0.5 0.5
7.1 7.7 7.2 6.6 5.3 6.9 6.0 6.3 6.5 7.3 7.7 7.5 6.4 6.4 6.4 7.1 6.8 5.9 5.6 6.3 8.0 7.9 7.6 7.1 7.1 7.8 8.1 7.3 6.2 5.4 4.6 4.5 5.1 4.8 3.9 3.7 3.7 3.7 4.7 5.3 5.1 4.2 4.3 3.6 -0.6 0.8 1.2 0.0 -0.3 -0.8 -1.1 -1.1 -0.7 -0.7
6.9 7.9 6.4 6.0 6.4 6.5 7.0 7.2 7.3 7.1 7.4 7.4 7.2 7.1 7.0 5.8 4.9 4.6 4.4 4.7 5.6 5.5 2.5 4.4 4.4 3.4 1.7 3.6 3.5 4.0 3.6 3.2 3.7 2.9 2.3 2.3 2.9 3.0 2.1 1.4 1.7 2.1 2.4 -0.9 1.7 0.5 -4.5 -2.3 -2.4 -1.7 -1.3 -0.7 -0.2 0.2
7.9 7.6 6.2 7.0 6.6 6.5 5.0 3.8 3.9 5.0 3.5 3.2 1.3 4.4 5.9 5.3 4.7 4.5 4.3 3.7 1.0 -1.3 -1.0 -1.1 -1.5 -0.8 -0.3 1.4 -0.2 -0.0 0.8 -1.1 -0.7 1.7 3.7 3.0 0.7 -0.5 -0.7 -0.5 -0.0 0.0 -0.4 -0.6 -0.3 0.6 0.7 -0.3 -0.4 -0.4 -0.1 -0.0 0.2 0.6
7.3 6.4 6.4 6.5 6.6 5.0 4.6 4.4 4.9 4.2 3.4 3.0 2.7 1.5 1.0 1.8 2.5 3.4 1.7 -1.4 -1.7 -1.0 -1.3 -1.5 -1.6 -1.4 -1.5 0.5 -1.7 -0.8 -2.0 0.3 0.1 -0.7 0.5 1.3 1.1 -1.4 -1.0 0.6 -1.5 -1.7 -1.7 -1.5 -1.1 -0.7 -0.8 -0.5 -0.2 0.0 0.4 0.3 0.7 0.8
6.9 6.7 7.0 6.7 6.2 6.8 4.9 5.7 6.6 5.5 4.5 5.3 2.8 1.8 1.4 2.1 2.5 2.8 1.9 -0.6 -1.9 -2.2 -1.5 -2.3 -2.6 -3.2 -2.6 -2.3 -1.6 -1.6 -1.5 -0.3 -0.6 1.5 2.0 2.1 1.0 -0.4 0.5 -0.9 -1.9 -2.2 -1.7 -1.0 -1.3 -0.9 -0.7 -0.3 0.1 -0.0 -0.1 0.2 0.6 0.9
Wind_Speed
27 28 28 27 24 22 20 17 15 14 13 11 11 13 16 18 16 4 3 5 6 6 13 13 13 10 2 2 5 4 4 1 4 5 5 4 5 4 5 10 4 6 5 4 4 4 5 11 3 2 1 5 7 10
27 28 26 25 22 20 18 15 13 13 12 12 13 17 21 19 17 8 9 11 8 8 12 14 14 9 8 8 3 3 6 6 2 2 3 4 8 4 4 3 12 5 4 2 5 3 5 4 3 2 4 6 6 9
27 26 25 23 21 18 16 14 12 12 13 15 19 21 20 10 7 10 12 14 14 14 12 11 13 12 8 5 1 5 5 4 5 6 6 5 7 4 3 5 2 4 8 2 1 3 2 2 4 3 9 9 9 9
26 24 22 21 19 16 14 12 11 15 19 21 21 21 18 19 32 26 9 3 6 7 6 9 9 15 13 15 19 16 11 6 5 6 7 5 5 7 4 4 3 3 7 6 1 10 4 9 8 10 11 15 8 8
25 23 21 19 17 14 12 11 15 19 22 22 25 26 29 26 21 12 7 7 3 4 6 10 13 13 12 12 13 9 7 8 7 8 8 8 6 4 5 3 3 5 3 3 3 7 5 9 11 15 14 16 8 6
22 21 20 18 16 14 13 14 19 23 24 25 28 33 32 16 3 3 5 9 24 13 7 4 6 11 12 12 13 12 9 8 6 7 6 4 4 2 4 2 3 7 5 3 3 9 10 16 18 19 10 7 7 4
21 20 18 17 17 16 16 19 24 25 25 26 25 23 14 5 6 3 5 7 7 6 5 6 5 3 9 11 8 7 7 6 7 6 7 7 7 5 2 3 9 9 8 5 8 10 7 11 11 12 10 7 6 9
20 19 18 18 19 20 21 25 28 28 30 31 25 21 31 33 16 8 6 11 8 5 4 4 5 6 4 6 3 4 5 4 6 4 4 5 5 4 3 4 7 8 7 7 7 7 7 10 13 16 15 13 12 11
20 19 19 20 22 23 24 28 30 31 31 29 32 31 6 4 3 3 5 9 3 2 4 4 8 5 4 7 4 2 3 3 3 6 4 3 3 4 1 5 6 7 7 8 7 8 10 11 13 14 15 16 14 12
21 20 21 23 25 24 26 30 30 23 30 22 5 4 3 3 3 2 1 3 4 4 4 8 8 7 9 7 3 3 1 4 3 3 4 3 3 6 2 1 4 8 4 9 9 10 10 11 11 12 12 12 12 12
22 22 23 26 27 25 28 26 26 22 8 3 3 3 5 4 2 3 3 4 2 3 3 6 11 11 5 7 4 2 2 1 3 3 2 3 3 4 4 3 2 6 8 8 8 8 9 9 9 9 10 11 11 11
25 26 26 27 27 26 25 27 20 3 1 6 9 6 3 2 4 6 2 3 2 4 6 11 11 8 4 2 3 1 2 2 3 4 2 3 4 9 7 4 3 5 7 9 10 11 11 12 10 10 10 10 11 11
28 30 30 31 29 26 20 17 22 20 20 4 4 4 2 3 6 4 4 4 5 7 11 11 10 4 3 3 2 2 2 2 8 2 2 3 11 8 8 5 4 3 3 7 9 10 11 12 12 12 11 11 11 12
29 29 27 26 26 25 22 18 12 3 1 3 4 5 3 1 1 1 3 8 7 12 13 10 7 3 3 3 2 2 3 5 4 3 4 6 12 11 10 8 7 6 5 6 6 7 9 10 11 10 10 10 10 11
28 28 26 23 25 20 16 16 13 4 3 4 4 4 3 3 6 7 8 11 13 12 10 8 6 5 4 3 2 3 4 3 4 4 5 9 12 11 9 8 7 5 4 5 5 5 4 6 6 8 8 9 10 9
29 22 6 18 23 18 16 11 5 3 3 4 4 5 7 8 6 8 11 13 10 10 8 4 4 4 3 4 4 3 6 3 3 7 9 12 12 11 9 8 6 4 4 5 5 5 5 5 5 6 5 6 6 8
14 4 9 19 21 21 12 4 4 6 4 4 3 6 4 9 10 10 10 9 8 6 4 4 4 3 5 3 3 3 2 6 9 11 10 12 12 11 9 7 6 4 5 4 4 4 4 4 4 5 7 6 7 7
5 11 15 17 9 6 3 4 4 4 7 5 4 5 8 7 9 9 8 7 3 4 3 3 4 3 4 5 4 4 7 9 10 10 9 10 11 10 8 7 5 4 4 3 3 3 4 5 5 4 7 7 7 7
14 15 9 4 4 5 4 5 4 4 4 3 5 7 9 8 8 7 5 3 5 4 4 2 3 3 3 4 9 8 9 9 10 10 9 11 10 9 8 6 4 4 3 2 4 3 3 4 4 6 6 7 4 4
27 20 17 13 4 4 5 3 2 5 3 4 6 8 7 6 7 6 5 5 4 3 3 2 4 7 6 8 8 8 9 10 9 9 9 8 8 8 7 4 4 2 4 5 5 3 3 5 5 6 6 6 6 7
11 5 16 8 4 6 4 3 4 3 3 3 6 6 6 6 7 5 4 3 2 2 3 7 7 7 8 8 8 8 10 9 9 8 8 8 7 6 6 5 4 2 4 4 5 4 1 6 6 6 7 6 6 7
2 6 4 6 4 4 4 6 4 4 3 4 5 4 6 5 4 3 3 3 2 5 6 8 8 8 8 11 10 11 10 11 10 7 8 8 6 5 5 5 5 5 5 4 5 4 5 6 5 5 5 5 6 6
6 5 4 5 6 5 2 2 3 2 4 5 5 3 3 3 3 2 2 3 3 6 8 9 10 11 11 12 11 11 11 10 7 7 6 6 6 5 5 6 5 4 4 5 4 4 5 2 4 2 4 4 5 5
9 5 5 4 5 3 2 2 2 3 4 4 3 4 4 3 5 2 3 4 6 7 8 11 9 9 9 11 9 8 7 6 7 7 6 6 6 6 5 6 6 5 3 5 4 3 4 3 1 3 3 1 3 4
7 5 4 5 2 4 3 2 2 3 3 4 3 3 3 4 3 3 4 5 8 8 9 8 8 7 8 7 7 7 8 5 6 7 6 5 6 6 5 5 4 4 4 3 3 3 2 2 1 1 2 1 5 4
6 2 2 3 4 4 5 5 4 4 4 2 3 5 3 3 4 4 4 8 9 9 9 9 8 8 7 7 8 7 8 7 6 6 7 5 5 6 6 5 5 4 4 3 4 4 4 3 3 5 2 3 2 6
4 2 1 1 4 6 4 3 4 4 3 5 5 4 4 4 5 3 3 7 8 9 10 9 7 7 7 6 6 7 8 7 8 6 6 6 4 6 6 6 6 4 5 7 5 5 5 5 3 2 3 1 3 4
2 4 6 5 3 2 3 3 4 5 4 5 7 5 8 7 4 2 2 5 8 9 9 8 7 6 6 7 5 7 7 4 6 7 5 3 4 3 3 2 4 5 1 5 4 4 4 5 5 4 3 5 4 4
2 4 5 3 1 2 3 3 4 3 4 6 5 4 4 1 2 2 0 2 4 9 9 8 5 4 5 6 6 7 7 8 12 11 10 6 4 5 4 4 4 4 4 3 5 4 4 4 5 5 4 3 3 5
4 5 3 3 3 2 1 4 2 3 1 2 1 2 2 2 2 2 4 4 4 4 4 5 4 5 6 7 6 4 2 2 3 5 8 8 5 2 5 3 2 3 4 3 2 5 5 3 1 0 2 3 4 5
6 3 2 3 3 2 2 3 2 1 3 3 4 1 2 2 2 2 4 4 5 5 6 5 5 6 8 6 6 7 5 4 4 3 4 1 4 4 5 5 5 5 4 4 3 4 4 3 4 5 6 7 8 8
3 2 3 3 2 1 0 1 2 2 2 1 1 2 1 1 1 4 4 6 6 6 7 9 9 9 10 5 6 5 4 5 8 7 7 4 4 6 8 8 8 7 5 5 5 5 6 7 5 6 6 7 9 10
2 2 3 4 3 2 2 1 2 2 1 2 0 0 0 2 3 3 4 5 6 9 9 9 8 7 10 11 9 6 5 4 7 13 15 13 12 12 9 9 9 8 8 6 6 6 7 6 7 6 6 7 9 10
Wind_Direction
157 151 148 150 159 166 172 183 185 198 204 206 209 201 198 207 210 250 62 68 122 97 55 49 40 52 28 60 142 141 165 235 67 82 91 83 80 69 72 50 43 42 339 20 324 79 92 2 314 41 34 341 299 307
150 146 147 152 159 164 170 180 187 203 204 196 183 185 188 190 213 216 99 80 91 81 100 69 60 55 36 21 65 130 77 70 69 113 154 105 79 56 78 66 21 47 35 4 20 58 41 8 46 52 287 299 293 309
146 144 147 152 159 161 171 178 190 202 178 162 165 175 176 181 228 127 116 119 101 102 78 55 38 51 61 28 9 114 80 101 57 55 83 88 81 53 38 38 126 51 20 17 332 7 312 300 301 289 338 317 322 324
140 142 147 154 153 160 169 172 190 174 152 153 163 154 151 139 129 133 137 173 87 108 87 70 66 54 74 76 79 86 94 105 97 62 66 90 93 40 48 91 53 336 318 333 257 19 350 31 21 345 327 307 320 329
139 143 151 151 151 157 160 168 170 149 143 152 151 144 137 140 140 103 73 72 97 109 117 117 79 56 66 82 91 93 94 85 79 75 88 84 81 76 111 107 41 349 350 8 7 350 329 295 319 311 304 293 320 327
141 147 147 149 148 148 150 159 149 142 142 142 135 135 141 130 28 106 71 55 95 116 119 94 85 85 83 83 81 84 71 62 69 90 84 62 45 356 73 83 356 339 335 258 261 314 292 275 279 274 278 307 18 20
144 145 146 147 140 140 143 139 128 124 121 118 118 114 92 58 58 55 133 138 107 123 103 118 119 71 104 110 100 87 69 86 96 76 72 82 65 77 61 40 324 341 328 298 265 279 322 337 338 340 345 78 114 67
143 145 145 141 136 137 139 131 126 124 121 120 118 123 126 112 105 83 27 38 357 87 76 96 105 137 209 138 101 139 103 79 77 87 90 63 52 72 64 312 333 340 343 338 17 18 352 352 12 7 12 40 49 46
143 142 140 138 136 138 138 134 131 133 136 144 144 141 129 51 78 117 327 335 15 73 109 117 143 133 191 114 134 118 95 76 78 84 86 83 50 53 266 318 332 344 339 300 33 22 27 19 17 24 21 21 27 35
140 141 139 136 136 140 141 137 139 142 135 140 163 76 51 64 101 162 83 47 36 28 34 116 104 127 149 160 103 122 63 143 138 85 101 79 79 111 157 238 296 307 327 27 42 32 28 34 19 29 26 23 26 23
139 142 139 137 137 145 143 138 131 119 107 190 83 74 104 135 215 50 62 78 125 90 97 119 127 132 142 124 119 74 116 179 151 127 165 119 129 134 154 114 16 7 12 33 55 54 44 46 40 24 33 33 31 24
138 137 136 133 138 142 139 142 147 185 60 119 104 120 143 100 53 77 45 143 125 126 148 142 130 110 77 86 108 75 93 228 99 180 121 112 144 142 148 144 101 57 36 34 27 50 47 47 40 45 39 42 38 31
136 133 131 130 132 137 143 168 201 142 131 121 76 72 107 335 54 126 148 123 135 144 143 138 133 127 150 79 108 114 94 82 140 126 87 130 138 137 150 166 161 133 108 66 46 33 57 54 51 42 46 40 45 41
129 121 115 112 119 120 114 99 115 187 93 78 93 64 84 41 101 42 126 135 124 133 136 142 130 93 117 103 149 145 106 150 174 138 176 153 142 143 159 159 132 101 78 92 100 55 42 61 59 56 50 50 45 43
116 107 104 108 116 110 100 76 44 66 67 69 64 79 77 106 77 78 102 116 121 139 135 121 102 92 93 108 137 126 166 183 194 149 150 145 140 141 147 132 112 96 80 72 43 81 79 37 52 53 56 58 55 54
115 84 75 123 116 106 86 70 39 48 62 57 65 81 121 113 125 127 119 125 141 139 147 95 101 117 122 134 138 188 165 147 139 124 133 135 146 143 129 117 103 77 71 63 63 37 46 60 63 53 47 59 58 47
93 102 149 121 106 79 55 71 46 42 55 51 74 117 120 132 124 121 128 133 152 152 103 109 110 101 121 137 147 146 105 103 112 119 130 141 140 138 128 118 108 95 86 70 59 56 26 354 346 39 45 50 71 64
93 131 144 139 102 75 46 45 74 71 57 68 74 105 115 108 123 129 130 142 171 125 114 85 133 140 143 142 129 123 111 110 114 126 129 136 131 130 135 124 113 92 84 70 43 55 38 8 51 50 34 26 41 29
123 127 136 144 106 89 69 33 40 80 72 101 116 103 107 109 103 112 119 77 70 99 127 86 84 118 103 102 127 132 125 126 129 128 130 127 127 132 122 113 109 99 75 80 50 34 65 68 37 34 23 13 29 37
95 84 79 84 86 78 67 56 22 85 99 98 107 115 116 109 111 116 132 152 141 96 69 66 101 103 113 118 131 132 125 126 127 132 137 140 140 145 137 166 97 126 122 143 114 317 51 66 42 54 46 34 17 24
90 11 38 54 55 48 71 72 67 84 80 91 113 117 112 126 128 124 120 137 75 95 97 109 98 90 88 106 118 114 122 139 143 149 149 148 153 159 138 137 145 135 112 79 91 113 70 58 37 37 47 23 5 15
88 74 71 39 71 62 66 1 89 91 86 143 141 125 123 122 125 118 137 79 100 103 111 124 127 126 120 114 113 122 125 98 97 99 102 125 145 146 147 142 157 141 113 103 98 84 71 61 30 22 52 26 19 9
103 50 50 45 71 55 60 277 93 90 123 157 126 86 140 145 107 162 105 147 118 118 117 130 136 129 124 127 130 119 119 132 132 127 139 154 142 138 140 135 126 132 131 116 109 93 87 102 95 27 46 36 18 358
45 55 51 57 65 84 50 46 92 90 117 116 106 135 124 127 181 167 154 152 160 140 131 140 135 132 137 138 144 151 154 160 149 143 160 158 149 156 160 155 146 150 135 123 119 97 88 91 90 31 68 61 348 283
76 11 72 73 90 112 108 61 90 79 149 123 107 117 140 156 168 182 184 163 166 160 157 160 154 156 155 160 159 155 165 181 165 159 163 177 161 148 161 145 131 144 143 128 120 137 166 174 184 251 207 231 313 331
76 12 79 130 163 123 154 131 152 159 108 85 122 127 166 170 157 214 202 178 173 171 168 171 164 168 164 168 167 164 170 176 188 178 160 174 183 162 163 163 162 177 193 164 152 161 192 195 204 241 251 301 341 312
104 102 159 206 148 117 89 105 131 101 125 157 155 158 144 173 216 228 161 175 173 171 166 169 173 172 165 158 156 156 151 163 183 177 146 157 192 170 176 176 182 185 175 174 179 167 198 222 223 233 235 197 278 282
106 145 145 149 86 126 119 109 139 166 166 157 149 171 179 192 201 135 156 172 162 160 161 164 174 174 163 157 151 130 138 134 110 91 89 126 178 197 194 176 127 126 183 130 144 154 167 194 220 237 258 285 278 278
118 145 109 89 95 129 183 166 188 156 154 160 160 174 179 115 69 123 45 114 146 153 156 161 171 159 128 131 137 144 148 155 162 170 173 180 182 217 208 192 173 175 184 182 164 158 196 183 207 223 213 223 266 291
158 155 105 136 148 156 130 3 73 75 5 124 60 108 101 110 77 103 130 125 141 143 138 148 130 119 136 145 149 154 139 182 203 173 182 200 198 154 163 166 175 167 144 143 166 110 86 106 117 261 278 281 287 289
151 139 109 106 117 57 40 348 330 58 33 32 12 53 102 80 137 178 167 143 124 117 125 124 126 146 150 154 159 161 193 237 224 234 197 63 130 162 160 178 189 178 138 162 172 193 218 237 256 273 281 288 299 305
121 142 139 120 118 115 216 52 74 67 21 43 10 35 51 114 160 178 145 130 145 162 180 170 165 186 191 170 170 178 162 161 185 197 205 172 166 180 176 171 162 160 165 162 188 196 209 224 247 262 278 287 295 300
104 76 99 115 124 177 162 150 95 117 98 155 83 184 149 180 186 195 163 167 182 179 182 191 193 178 181 183 182 182 187 172 194 192 201 199 179 177 172 172 165 164 185 193 199 205 213 228 252 262 276 283 294 302